• In Latvia
  • List of Countries
  • For 7 days
  • Water Temperature
  • Satellite Maps
  • Weather Map
  • Weather Widgets
  • user-avatar
    Login

    Hourly Weather Kemeri

    Today, 21 November, Tuesday

    Time Temperature Precipitation Wind Pressure Humidity
    00:00 -1°C° 0 mm 2 mps 754 mmHg 91%
    01:00 -1°C° 0 mm 2 mps 755 mmHg 91%
    02:00 -1°C° 0 mm 2 mps 755 mmHg 91%
    03:00 -1°C° 0 mm 2 mps 755 mmHg 92%
    04:00 -1°C° 0 mm 2 mps 755 mmHg 93%
    05:00 -1°C° 0 mm 2 mps 755 mmHg 93%
    06:00 -1°C° 0 mm 2 mps 755 mmHg 93%
    07:00 -1°C° 0 mm 2 mps 755 mmHg 93%
    08:00 +2°C° 0 mm 1 mps 755 mmHg 93%
    09:00 +2°C° 0 mm 1 mps 755 mmHg 90%
    10:00 +3°C° 0 mm 1 mps 756 mmHg 87%
    11:00 +3°C° 0 mm 1 mps 756 mmHg 85%
    12:00 +4°C° 0.1 mm 1 mps 756 mmHg 84%
    13:00 +3°C° 0.1 mm 2 mps 756 mmHg 83%
    14:00 +3°C° 0 mm 2 mps 756 mmHg 84%
    15:00 +2°C° 0.2 mm 2 mps 756 mmHg 86%
    16:00 +2°C° 0.2 mm 2 mps 756 mmHg 88%
    17:00 +3°C° 0.2 mm 1 mps 756 mmHg 90%
    18:00 +2°C° 0.3 mm 1 mps 756 mmHg 90%
    19:00 +1°C° 0.3 mm 2 mps 756 mmHg 89%
    20:00 +1°C° 0.3 mm 2 mps 756 mmHg 89%
    21:00 +1°C° 0.2 mm 2 mps 756 mmHg 89%
    22:00 -1°C° 0.2 mm 2 mps 756 mmHg 89%
    23:00 -1°C° 0.2 mm 2 mps 757 mmHg 89%

    Tomorrow, 22 November, Wednesday

    Time Temperature Precipitation Wind Pressure Humidity
    00:00 -1°C° 0 mm 2 mps 757 mmHg 90%
    01:00 -1°C° 0 mm 2 mps 757 mmHg 90%
    02:00 -1°C° 0 mm 2 mps 757 mmHg 91%
    03:00 -2°C° 0 mm 2 mps 758 mmHg 91%
    04:00 -2°C° 0 mm 2 mps 758 mmHg 92%
    05:00 0°C° 0 mm 1 mps 758 mmHg 92%
    06:00 0°C° 0 mm 1 mps 758 mmHg 92%
    07:00 0°C° 0 mm 1 mps 758 mmHg 92%
    08:00 0°C° 0 mm 1 mps 758 mmHg 92%
    09:00 +1°C° 0 mm 1 mps 758 mmHg 90%
    10:00 -1°C° 0 mm 2 mps 759 mmHg 88%
    11:00 +1°C° 0 mm 2 mps 759 mmHg 86%
    12:00 +1°C° 0 mm 2 mps 759 mmHg 85%
    13:00 +2°C° 0 mm 2 mps 759 mmHg 83%
    14:00 +2°C° 0 mm 2 mps 759 mmHg 82%
    15:00 +1°C° 0 mm 2 mps 760 mmHg 84%
    16:00 0°C° 0 mm 3 mps 760 mmHg 86%
    17:00 -1°C° 0 mm 3 mps 760 mmHg 88%
    18:00 -1°C° 0 mm 3 mps 760 mmHg 87%
    19:00 -1°C° 0 mm 3 mps 760 mmHg 87%
    20:00 -2°C° 0 mm 4 mps 760 mmHg 86%
    21:00 -2°C° 0 mm 4 mps 760 mmHg 85%
    22:00 -2°C° 0 mm 4 mps 760 mmHg 84%
    23:00 -2°C° 0 mm 5 mps 760 mmHg 82%

    Day after tomorrow, 23 November, Thursday

    Time Temperature Precipitation Wind Pressure Humidity
    00:00 -2°C° 0 mm 5 mps 760 mmHg 82%
    01:00 -2°C° 0 mm 5 mps 760 mmHg 82%
    02:00 -3°C° 0 mm 6 mps 760 mmHg 82%
    03:00 -3°C° 0.1 mm 6 mps 760 mmHg 82%
    04:00 -2°C° 0.1 mm 6 mps 760 mmHg 82%
    05:00 -2°C° 0.1 mm 7 mps 760 mmHg 82%
    06:00 -2°C° 0.4 mm 7 mps 760 mmHg 83%
    07:00 -2°C° 0.4 mm 7 mps 759 mmHg 84%
    08:00 -2°C° 0.4 mm 7 mps 759 mmHg 85%
    09:00 -2°C° 0.1 mm 7 mps 759 mmHg 86%
    10:00 -1°C° 0.1 mm 7 mps 759 mmHg 87%
    11:00 -1°C° 0.1 mm 7 mps 759 mmHg 87%
    12:00 -1°C° 0 mm 7 mps 759 mmHg 88%
    13:00 0°C° 0 mm 7 mps 759 mmHg 88%
    14:00 0°C° 0 mm 7 mps 759 mmHg 89%
    15:00 0°C° 0 mm 7 mps 759 mmHg 90%
    16:00 0°C° 0 mm 7 mps 759 mmHg 91%
    17:00 +2°C° 0 mm 7 mps 758 mmHg 91%
    18:00 +2°C° 0 mm 7 mps 758 mmHg 91%
    19:00 +2°C° 0 mm 7 mps 758 mmHg 91%
    20:00 +2°C° 0 mm 7 mps 758 mmHg 91%
    21:00 +2°C° 0 mm 7 mps 758 mmHg 91%
    22:00 +2°C° 0 mm 7 mps 758 mmHg 91%
    23:00 +2°C° 0 mm 7 mps 758 mmHg 91%

    24 November, Friday

    Time Temperature Precipitation Wind Pressure Humidity
    00:00 +2°C° 0.1 mm 7 mps 758 mmHg 91%
    01:00 +2°C° 0.1 mm 7 mps 758 mmHg 91%
    02:00 +2°C° 0.1 mm 6 mps 758 mmHg 91%
    03:00 +2°C° 0 mm 6 mps 758 mmHg 91%
    04:00 +2°C° 0 mm 6 mps 758 mmHg 91%
    05:00 +2°C° 0 mm 6 mps 758 mmHg 91%
    06:00 +3°C° 0 mm 6 mps 759 mmHg 92%
    07:00 +3°C° 0 mm 5 mps 759 mmHg 92%
    08:00 +3°C° 0 mm 5 mps 759 mmHg 93%
    09:00 +3°C° 0 mm 5 mps 760 mmHg 92%
    10:00 +5°C° 0 mm 5 mps 760 mmHg 92%
    11:00 +5°C° 0 mm 5 mps 760 mmHg 92%
    12:00 +5°C° 0 mm 4 mps 760 mmHg 92%
    13:00 +5°C° 0 mm 4 mps 760 mmHg 92%
    14:00 +6°C° 0 mm 4 mps 761 mmHg 91%
    15:00 +5°C° 0 mm 4 mps 760 mmHg 92%
    16:00 +5°C° 0 mm 4 mps 760 mmHg 93%
    17:00 +5°C° 0 mm 5 mps 760 mmHg 94%
    18:00 +5°C° 0 mm 5 mps 760 mmHg 94%
    19:00 +4°C° 0 mm 6 mps 760 mmHg 93%
    20:00 +4°C° 0 mm 6 mps 760 mmHg 92%
    21:00 +4°C° 0.1 mm 6 mps 760 mmHg 92%
    22:00 +4°C° 0.1 mm 6 mps 760 mmHg 92%
    23:00 +6°C° 0.1 mm 5 mps 760 mmHg 92%

    25 November, Saturday

    Time Temperature Precipitation Wind Pressure Humidity
    00:00 +6°C° 0.1 mm 5 mps 760 mmHg 91%
    01:00 +5°C° 0.1 mm 5 mps 760 mmHg 91%
    02:00 +5°C° 0.1 mm 5 mps 759 mmHg 91%
    03:00 +6°C° 0.2 mm 5 mps 759 mmHg 91%
    04:00 +6°C° 0.2 mm 5 mps 759 mmHg 90%
    05:00 +6°C° 0.2 mm 5 mps 759 mmHg 89%
    06:00 +6°C° 0.3 mm 5 mps 758 mmHg 89%
    07:00 +6°C° 0.3 mm 5 mps 758 mmHg 89%
    08:00 +6°C° 0.3 mm 5 mps 758 mmHg 89%
    09:00 +6°C° 0.1 mm 5 mps 758 mmHg 89%
    10:00 +6°C° 0.1 mm 5 mps 758 mmHg 88%
    11:00 +6°C° 0.1 mm 5 mps 758 mmHg 88%
    12:00 +7°C° 0.3 mm 5 mps 758 mmHg 86%
    13:00 +7°C° 0.3 mm 5 mps 757 mmHg 84%
    14:00 +7°C° 0.3 mm 6 mps 757 mmHg 82%
    15:00 +7°C° 0 mm 6 mps 757 mmHg 82%
    16:00 +5°C° 0 mm 6 mps 757 mmHg 82%
    17:00 +5°C° 0 mm 6 mps 756 mmHg 81%
    18:00 +5°C° 0 mm 6 mps 756 mmHg 82%
    19:00 +5°C° 0 mm 6 mps 756 mmHg 83%
    20:00 +4°C° 0 mm 6 mps 756 mmHg 84%
    21:00 +4°C° 0 mm 6 mps 756 mmHg 85%
    22:00 +4°C° 0 mm 6 mps 756 mmHg 86%
    23:00 +4°C° 0 mm 6 mps 756 mmHg 88%

    26 November, Sunday

    Time Temperature Precipitation Wind Pressure Humidity
    00:00 +5°C° 0 mm 5 mps 756 mmHg 88%
    01:00 +5°C° 0 mm 5 mps 757 mmHg 89%
    02:00 +5°C° 0 mm 5 mps 757 mmHg 90%
    03:00 +5°C° 0.1 mm 4 mps 756 mmHg 91%
    04:00 +5°C° 0.1 mm 4 mps 756 mmHg 91%
    05:00 +5°C° 0.1 mm 3 mps 756 mmHg 92%
    06:00 +5°C° 0.7 mm 3 mps 756 mmHg 91%
    07:00 +5°C° 0.7 mm 3 mps 757 mmHg 90%
    08:00 +4°C° 0.7 mm 3 mps 757 mmHg 88%
    09:00 +5°C° 0.2 mm 3 mps 757 mmHg 86%
    10:00 +5°C° 0.2 mm 3 mps 757 mmHg 84%
    11:00 +5°C° 0.2 mm 3 mps 758 mmHg 83%
    12:00 +5°C° 0 mm 3 mps 758 mmHg 80%
    13:00 +5°C° 0 mm 3 mps 758 mmHg 78%
    14:00 +5°C° 0 mm 3 mps 759 mmHg 75%
    15:00 +4°C° 0 mm 3 mps 759 mmHg 77%
    16:00 +4°C° 0 mm 3 mps 759 mmHg 78%
    17:00 +3°C° 0 mm 3 mps 759 mmHg 80%
    18:00 +1°C° 0 mm 4 mps 759 mmHg 81%
    19:00 +1°C° 0 mm 4 mps 759 mmHg 83%
    20:00 +1°C° 0 mm 4 mps 759 mmHg 84%
    21:00 0°C° 0 mm 4 mps 759 mmHg 85%
    22:00 0°C° 0 mm 4 mps 760 mmHg 85%
    23:00 0°C° 0 mm 4 mps 760 mmHg 86%
    Show more